星链-3156 (STARLINK-3156 )

导读

STARLINK-3156是美国太空探索技术公司(SpaceX)于2021年11月13日发射的星链(Starlink)项目卫星,属于Starlink V1.0平台,运行在近地点355.133km、远地点357.473km的近地轨道,轨道倾角43.001°,周期约91.67分钟。作为星链星座的组成部分,它为全球提供高速低延迟卫星互联网服务,覆盖偏远地区,也支持军事、航空等领域通信。

Basic Information
目录编号:
49458
目录名称:
STARLINK-3156
国际标识:
2021-104BC
轨道中心:
EARTH
卫星名称:
星链-3156
卫星全名:
星链-3156 (STARLINK-3156 )
卫星状态:
在轨 (已飞行1675 天)
发射日期:
2021-11-13 UTC
国别 :
美国 (US)
星等 :
--
Orbit Information
数据来源 国际轨道数据 AOE轨道数据
星历时间 2026-06-14T23:22:17+0800
15小时前
查看轨道信息
2026-06-15T05:00:00+0800
10小时前
查看轨道信息
半长轴 6917.912km 6917.897km
偏心率 0.000142 0.0001295
轨道倾角 53.161° 53.160°
近地点辐角 89.033° 90.793°
升交点赤经 143.813° 142.758°
平近点角 271.082° 103.938°
近地点 538.792km 538.864km
远地点 540.758km 540.656km
周期 95.438分钟 95.438分钟
每日圈数 15.088298 15.088348
Detailed Information
固有亮度:
5
最大亮度:
2.5
卫星平台:
Starlink v1.5
覆盖范围:
全球
运营商:
太空探索技术公司
运营商所在国:
美国
制造商(研发单位):
太空探索技术公司
制造商所在国:
美国
使用方式:
暂无
Satellite Introduction
星链(Starlink)计划是由太空探索技术公司(SpaceX)提出的一个巨型低轨卫星互联网星座项目,计划在2019年至2024年间在太空搭建由约1.2万颗卫星组成的“星链”网络,其中1584颗将部署在地球上空550千米处的近地轨道,并从2020年开始工作。该卫星仍在工作。
2D Orbit Map
3D Orbit Map
Orbit Altitude Analysis Chart
Orbit Inclination Analysis Chart
Orbit Comprehensive Analysis Chart
View Comprehensive Chart